KC3QWH Weather Reports


time (UTC)temp
F
wind
direction
speed
knots
gust
knots
rain 1hr
in
rain 24hr
in
rain mn
in
humidity
%
barometer
mb
20260504081556 45 268 2.6 3.5 0.00 0.00 0.00 65 1014.9
20260504044556 48 275 3.5 5.2 0.00 0.00 0.00 57 1014.8
20260504043101 49 226 0.9 3.5 0.00 0.00 0.00 55 1014.8
20260504041555 49 271 2.6 4.3 0.00 0.00 0.00 56 1014.7
20260504040132 48 240 1.7 2.6 0.00 0.00 0.00 57 1014.7
20260504034602 49 232 1.7 2.6 0.00 0.00 0.00 56 1014.6
20260504033058 49 228 2.6 3.5 0.00 0.00 0.00 55 1014.5
20260504031608 49 234 0.9 1.7 0.00 0.00 0.00 54 1014.4
20260504030053 49 256 1.7 1.7 0.00 0.00 0.00 54 1014.2
20260504024555 50 216 0.9 1.7 0.00 0.00 0.00 55 1014.4
20260504023056 51 248 0.9 1.7 0.00 0.00 0.00 51 1014.3
20260504021557 51 237 1.7 1.7 0.00 0.00 0.00 50 1014.5
20260504020109 51 229 1.7 2.6 0.00 0.00 0.00 49 1014.3
20260504014558 53 276 0.9 2.6 0.00 0.00 0.00 46 1014.1
20260504013058 53 239 0.9 1.7 0.00 0.00 0.00 45 1014.1
20260504011556 53 239 0.9 0.9 0.00 0.00 0.00 44 1014.0
20260504010058 54 238 0.0 0.9 0.00 0.00 0.00 43 1013.9
20260504004556 55 251 0.0 1.7 0.00 0.00 0.00 41 1013.8
20260504003053 56 270 1.7 3.5 0.00 0.00 0.00 40 1013.6
20260504001559 56 258 1.7 3.5 0.00 0.00 0.00 39 1013.7
20260504000059 57 308 0.9 3.5 0.00 0.00 0.00 39 1013.5
20260503234623 57 271 2.6 7.8 0.00 0.00 0.00 38 1013.2
20260503233057 58 293 0.9 8.7 0.00 0.00 0.00 37 1013.2
20260503231558 59 314 2.6 7.8 0.00 0.00 0.00 36 1013.1
20260503230056 60 283 2.6 9.6 0.00 0.00 0.00 36 1013.1
20260503224559 59 295 3.5 8.7 0.00 0.00 0.00 36 1013.1
20260503223057 60 245 3.5 12.2 0.00 0.00 0.00 36 1013.0
20260503221601 60 316 2.6 13.0 0.00 0.00 0.00 35 1013.1
20260503220059 61 258 4.3 11.3 0.00 0.00 0.00 37 1013.0
20260503214558 60 312 4.3 12.2 0.00 0.00 0.00 36 1013.1
20260503213057 61 312 3.5 13.9 0.00 0.00 0.00 36 1013.1
20260503211600 61 314 3.5 13.9 0.00 0.00 0.00 35 1012.9
20260503210054 61 18 3.5 12.2 0.00 0.00 0.00 35 1013.0
20260503204557 61 187 5.2 12.2 0.00 0.00 0.00 36 1012.9
20260503203058 61 4 3.5 10.4 0.00 0.00 0.00 36 1013.0
20260503201558 61 303 2.6 14.8 0.00 0.00 0.00 38 1013.2
20260503200059 60 39 5.2 13.9 0.00 0.00 0.00 35 1013.2
20260503194604 60 30 3.5 9.6 0.00 0.00 0.00 36 1013.4
20260503193059 58 216 1.7 9.6 0.00 0.00 0.00 40 1013.6
20260503191555 58 263 4.3 13.0 0.00 0.00 0.00 37 1013.6
20260503190103 58 325 6.1 13.0 0.00 0.00 0.00 36 1013.9
20260503184558 57 259 5.2 11.3 0.00 0.00 0.00 37 1014.2
20260503183102 58 320 5.2 17.4 0.00 0.00 0.00 37 1014.5
20260503181557 57 330 7.0 14.8 0.00 0.00 0.00 36 1014.6
20260503180109 57 299 3.5 13.9 0.00 0.00 0.00 39 1014.5
20260503174601 57 300 4.3 11.3 0.00 0.00 0.00 38 1014.7
20260503173057 55 27 6.1 14.8 0.00 0.00 0.00 39 1014.8
20260503171553 55 353 5.2 15.6 0.00 0.00 0.00 44 1014.9
20260503140107 48 319 6.1 12.2 0.00 0.00 0.00 48 1016.0